Torna al catalogo

STARLINK-30070

AttivoComunicazioniVLEO
NORAD 56707·PAYLOAD·🇺🇸 United States

Lanciato May 19, 2023 da Cape Canaveral Space Force Station

Loading…

Prossimi Passaggi (prossime 24 ore)

TLE

AggiornatoSource: CelesTrak SupGP

Epoca: Sep 15, 2026, 02:34 UTC

1 56707C 23067V   26258.10743056  .00004588  00000+0  16621-3 0  2583
2 56707  43.0002 281.3986 0001505 263.8520 261.7761 15.27571817    15

Traccia STARLINK-30070 in tempo reale con AllMySat

Download on the App Store